Theta_e
322 323 323 329 336 334 333 331 329 328 328 328 330 331 331 331 334 347 335 328 332 340 337 336 329 326 332 334 334 331 333 336 337 336 335 335 333 331 329 329 328 328 327 327 327 327 327 326 326
320 322 323 330 336 337 331 329 329 328 327 330 331 331 331 332 341 340 334 327 331 339 339 338 331 328 327 332 334 333 333 335 337 337 333 334 333 329 328 329 327 326 326 326 326 326 324 324 323
318 322 327 333 332 333 331 326 327 326 326 327 327 329 332 341 340 338 334 327 333 339 338 339 332 329 325 330 332 332 333 335 337 336 334 333 331 329 329 329 328 327 326 326 326 324 323 321 320
319 324 326 327 330 329 328 327 327 327 326 326 327 327 336 340 341 341 334 327 336 339 339 338 332 324 323 330 333 333 335 336 336 335 333 331 330 328 328 328 326 325 326 326 324 323 321 318 318
319 321 324 324 325 324 323 323 323 328 326 327 328 330 332 339 341 339 331 326 337 339 338 338 329 331 329 332 332 334 335 335 332 331 331 330 329 329 328 329 328 326 326 324 322 320 317 316 316
318 317 319 322 323 321 322 322 322 327 326 325 328 328 330 339 340 338 328 328 337 338 338 337 327 334 329 334 335 335 334 332 330 329 328 328 327 328 328 328 327 327 325 323 321 317 316 316 316
317 320 319 318 318 319 318 317 320 325 325 324 323 325 330 337 340 336 327 329 337 338 337 337 328 335 333 336 335 334 332 328 326 326 327 327 327 326 326 326 326 326 324 323 318 317 317 316 316
318 316 316 317 318 320 317 317 319 321 323 321 320 325 328 338 339 337 327 329 339 338 337 336 332 334 334 335 334 332 328 326 325 326 327 326 326 325 325 325 324 324 323 322 319 318 317 316 315
317 317 316 316 316 317 316 318 318 319 320 322 322 321 334 339 338 338 330 328 337 338 337 335 334 334 332 334 334 332 328 326 325 326 326 326 325 324 324 324 322 322 322 320 318 317 316 315 316
315 317 317 313 313 313 314 313 314 315 318 319 320 321 333 336 335 337 334 329 336 337 336 334 334 334 334 334 333 332 329 326 324 325 324 321 325 324 325 324 322 321 319 318 316 316 317 317 324
315 314 314 313 314 313 313 314 313 312 312 315 317 319 324 335 334 335 336 332 332 335 336 335 333 333 334 332 330 332 330 327 326 325 325 325 325 324 324 324 323 319 318 316 321 323 324 325 326
316 315 315 315 314 314 314 314 314 313 313 313 311 312 321 322 330 332 334 335 332 334 334 336 333 332 332 330 331 332 330 328 326 326 326 324 325 326 325 324 325 323 324 323 324 326 325 325 327
316 315 315 315 315 314 314 315 314 314 313 312 312 312 313 320 320 332 333 333 334 332 333 332 333 332 331 331 331 332 330 328 326 326 326 325 325 325 325 324 323 324 325 325 326 326 325 326 327
315 315 315 315 316 315 315 315 314 313 313 313 313 312 310 313 318 322 333 333 335 333 331 331 332 331 330 331 331 332 329 328 326 325 325 325 324 323 323 323 323 323 324 326 326 325 326 326 327
315 315 316 317 316 315 314 315 315 315 314 313 312 312 312 310 316 321 326 333 334 334 331 330 329 330 330 328 331 330 329 327 326 325 325 325 324 324 324 323 323 323 325 326 326 326 326 326 326
316 317 317 316 316 316 315 317 316 315 313 313 313 316 319 321 323 323 327 332 333 333 331 329 328 328 328 326 329 330 329 327 326 326 325 326 325 325 324 324 324 324 325 324 326 325 326 325 325
317 317 316 317 315 315 315 317 315 313 313 314 314 316 316 320 320 318 324 332 332 332 330 328 327 327 329 328 327 328 329 328 327 327 325 326 326 325 325 325 325 325 326 327 327 327 326 326 326
317 317 317 318 317 315 316 315 315 315 313 311 312 314 315 318 317 317 319 329 331 331 330 329 328 329 329 330 328 328 328 328 326 326 325 325 326 326 326 326 326 325 327 328 327 327 327 327 327
314 317 318 317 316 315 317 318 316 313 311 311 310 312 313 316 314 315 314 319 326 330 330 329 328 327 328 329 329 329 328 327 327 328 327 327 327 326 327 327 326 326 328 328 328 328 328 328 326
317 317 317 316 316 316 317 314 313 311 311 311 310 309 312 313 312 312 312 312 311 316 324 328 328 328 328 329 329 328 327 326 327 328 328 328 328 327 327 327 327 328 329 329 329 329 327 326 327
316 315 315 316 317 316 316 316 314 309 310 308 307 307 310 311 311 311 310 310 310 310 312 316 322 330 329 329 328 328 327 327 328 328 328 328 328 328 328 328 329 329 329 329 328 327 327 327 327
315 315 314 315 319 323 315 321 313 313 310 309 306 306 309 308 310 309 309 309 309 308 309 312 313 315 324 329 329 328 328 328 327 328 328 327 328 328 328 328 328 328 328 328 327 327 327 327 327
313 313 314 318 321 320 316 319 315 311 311 308 308 305 309 308 309 310 310 309 308 308 308 309 310 310 312 314 323 326 327 328 328 328 327 326 327 327 327 328 328 327 327 327 324 322 320 320 322
312 313 316 317 320 324 312 315 315 312 310 308 308 308 310 310 310 309 309 309 309 308 309 310 310 309 309 310 312 313 314 315 320 323 324 322 322 322 322 321 323 322 321 321 321 317 316 315 314
312 314 318 323 319 317 312 314 313 311 309 309 309 308 309 311 310 309 308 308 308 308 308 309 310 309 309 308 309 310 311 311 312 313 315 316 317 317 317 316 316 316 315 314 314 313 313 312 312
312 313 314 318 318 316 311 312 312 309 309 307 306 307 306 306 306 307 306 306 306 306 306 308 308 309 308 307 307 308 309 310 310 311 312 312 312 313 313 313 313 313 312 312 313 314 315 318 316
312 313 311 315 310 314 313 313 309 309 307 306 305 304 303 303 303 302 302 302 302 303 302 305 307 309 310 307 306 306 307 307 309 310 311 311 311 311 312 312 313 313 313 314 314 314 315 316 317
311 310 313 311 313 319 313 311 310 309 308 305 303 301 301 300 300 300 300 300 300 300 301 301 302 303 303 306 306 304 306 306 308 308 309 309 310 310 310 311 311 311 312 312 313 313 313 313 312
312 313 312 310 312 316 317 310 307 307 304 302 301 301 300 299 299 299 299 299 299 299 299 298 299 300 301 301 301 301 302 303 304 306 307 307 308 308 308 308 308 308 309 309 310 310 309 310 309
310 312 312 311 313 310 312 311 307 303 301 300 300 300 300 299 299 298 299 299 298 298 298 298 298 298 300 301 301 301 301 301 302 302 303 304 305 305 305 305 306 306 307 307 307 307 306 304 303
Wind_Speed
9 11 10 8 3 4 9 9 11 2 1 4 5 5 9 6 6 4 8 10 23 27 30 28 26 25 25 23 20 19 18 18 19 17 16 15 15 14 14 14 14 13 12 11 10 9 8 8 8
10 9 6 3 5 7 10 13 10 7 2 7 2 4 5 8 9 6 9 10 24 26 30 28 26 24 23 23 21 19 18 18 20 19 14 14 13 14 14 14 14 13 11 10 9 8 8 7 7
9 8 2 3 6 12 10 11 6 7 8 2 2 2 4 3 7 12 11 18 25 27 27 24 26 23 22 23 22 19 18 18 19 17 14 13 13 14 15 14 15 13 11 9 8 7 6 6 5
6 5 3 5 15 13 19 14 8 5 6 5 4 7 3 8 4 7 15 22 24 28 27 24 26 22 22 25 21 20 19 18 17 15 13 12 13 14 14 14 14 12 10 8 7 6 5 4 4
5 3 6 9 15 17 18 18 14 2 7 3 6 6 4 5 11 12 22 22 24 27 25 25 26 23 24 23 22 22 19 17 14 12 13 13 13 13 12 11 12 11 9 8 6 5 3 3 2
3 3 5 11 15 17 17 13 11 5 5 10 1 3 4 12 11 14 18 24 23 28 24 25 28 25 24 24 23 21 18 15 12 12 12 13 11 11 11 10 9 9 8 6 5 3 2 1 1
3 4 10 11 13 15 17 16 7 2 4 9 11 8 2 8 14 18 21 23 23 27 26 25 29 25 25 24 21 19 18 15 13 12 13 12 12 11 10 9 9 7 6 5 3 2 2 1 1
4 3 5 6 9 12 8 11 8 7 5 7 11 5 5 8 12 14 20 22 25 26 26 26 27 26 25 23 21 19 16 15 14 14 14 13 12 11 10 9 8 7 6 5 4 3 3 3 3
3 3 4 6 7 10 18 13 14 11 7 3 10 12 7 11 6 10 15 19 22 21 26 27 27 27 26 24 21 19 17 15 14 14 15 13 12 12 10 9 8 7 6 5 5 5 5 4 2
2 3 2 7 9 10 13 14 16 15 15 12 9 11 11 14 6 6 11 15 18 22 23 26 26 27 26 24 24 21 19 16 15 15 14 13 11 7 8 11 10 9 7 6 6 5 5 4 2
5 3 11 8 10 10 12 13 13 15 13 13 15 15 5 10 6 6 16 18 18 26 19 25 24 26 26 25 24 24 22 18 16 13 11 13 11 11 13 9 9 10 8 7 4 3 3 3 5
5 5 10 9 10 11 12 14 15 15 15 17 21 22 8 7 7 11 12 19 22 24 26 22 32 29 27 25 26 27 24 21 19 17 16 12 10 12 10 11 8 5 7 4 6 6 7 8 5
7 8 12 14 14 13 13 14 14 17 16 16 19 22 15 9 9 17 19 21 14 24 27 26 23 26 25 24 24 25 24 22 21 20 19 17 16 11 12 11 11 10 8 9 8 8 7 7 6
10 12 14 10 11 10 12 9 9 14 17 17 17 16 17 17 11 10 18 21 19 23 31 30 23 31 24 21 20 24 22 22 19 18 19 17 15 15 13 12 11 11 11 10 9 8 8 8 8
9 7 13 9 11 8 7 6 4 14 17 11 11 14 16 13 17 12 17 21 22 24 18 30 27 29 28 28 22 23 22 22 19 18 17 18 18 15 14 14 13 12 11 10 9 9 10 10 9
4 4 8 13 11 7 10 7 7 14 13 12 15 13 14 15 15 21 19 17 16 12 21 22 27 22 26 29 28 23 18 19 20 18 17 17 17 16 16 14 13 12 11 11 11 10 10 10 10
2 6 13 14 9 8 6 11 12 17 11 12 13 15 15 13 14 24 25 9 16 18 25 26 25 24 24 27 29 25 21 17 17 17 17 17 17 16 15 14 13 12 14 13 13 13 12 12 12
9 6 8 13 10 6 7 10 7 12 13 14 13 11 14 10 10 19 17 5 14 18 22 26 26 21 25 23 23 26 28 18 19 16 17 16 17 17 16 16 14 14 14 14 14 15 13 15 14
8 7 9 12 7 4 11 7 9 11 12 13 12 12 11 8 9 13 15 18 8 20 21 27 27 27 23 23 24 23 22 24 20 16 18 16 17 17 18 17 16 16 17 16 16 17 18 15 16
3 7 6 10 11 2 6 6 8 12 13 14 12 12 11 12 11 13 17 22 15 18 15 20 25 24 26 24 24 21 21 22 22 21 18 19 17 17 18 19 18 18 18 17 18 19 17 18 19
5 3 4 6 5 1 6 1 5 5 8 14 15 13 11 12 12 11 16 20 17 25 29 28 13 19 24 24 20 16 15 19 23 20 19 18 17 18 18 18 19 17 15 17 18 18 19 19 19
5 1 6 5 2 2 3 2 3 6 8 10 11 15 15 15 12 10 10 19 10 27 31 35 30 23 11 15 17 18 17 13 21 24 19 16 14 14 15 17 17 15 14 14 15 18 23 24 21
7 9 11 1 2 3 2 3 3 8 8 15 10 12 10 11 14 13 12 14 23 26 30 38 38 35 27 21 11 11 13 16 10 11 11 11 7 9 11 8 9 10 10 3 2 6 16 18 14
10 10 6 4 3 2 5 0 3 9 9 11 13 12 9 11 10 15 21 11 28 28 29 38 38 34 33 29 28 26 26 23 17 13 13 10 8 7 4 4 5 5 7 7 7 9 10 11 10
8 8 1 2 2 1 6 5 2 8 9 8 11 14 14 12 9 7 7 19 25 31 27 27 37 37 30 28 30 26 24 23 26 22 19 20 15 14 14 13 13 12 10 10 10 10 13 8 7
4 4 2 2 3 3 7 4 4 2 5 6 8 9 9 8 7 10 17 21 22 26 19 27 32 32 30 25 24 20 20 19 16 17 17 18 15 12 11 10 13 11 10 7 6 7 6 6 5
4 4 4 4 2 1 2 3 3 5 7 9 10 9 8 8 10 13 17 20 19 17 16 25 25 28 24 21 25 22 23 20 17 14 13 11 8 13 9 7 6 6 8 7 5 5 7 2 2
1 3 1 2 3 2 1 3 3 4 5 8 8 8 8 8 11 9 9 11 13 15 17 20 19 14 16 14 17 20 22 21 20 16 16 12 12 10 7 6 6 6 4 4 1 0 0 1 2
1 1 2 1 1 2 0 2 4 7 5 6 6 7 7 6 6 4 6 10 15 16 19 19 19 16 15 14 14 16 14 14 13 12 13 10 9 8 7 5 4 4 4 4 4 3 3 4 4
1 2 3 1 1 1 2 2 6 8 7 6 6 4 4 5 4 4 10 14 15 19 21 22 20 18 17 14 14 13 11 11 12 13 12 10 10 7 7 7 6 5 5 6 4 4 5 4 5
Wind_Direction
306 325 305 283 254 214 265 259 253 152 153 76 55 316 342 323 336 181 170 149 151 156 166 170 168 167 165 168 170 169 166 157 152 147 139 133 129 122 118 122 124 118 119 119 119 115 106 97 88
315 319 270 281 249 264 259 242 243 171 310 101 64 240 262 267 89 115 162 160 153 155 166 170 172 170 171 169 175 171 168 167 156 148 146 139 134 125 126 126 128 127 126 124 120 113 104 93 85
312 276 275 216 224 245 262 291 36 12 65 95 279 271 307 73 63 144 134 157 156 152 165 172 174 172 170 170 179 177 171 166 156 146 149 146 139 135 136 136 131 130 132 131 127 116 106 96 85
269 195 271 263 254 239 232 260 56 27 305 141 287 281 104 82 102 107 149 156 156 155 160 177 172 170 167 174 174 172 169 160 150 153 151 154 150 144 144 142 139 139 140 139 132 120 111 99 88
246 273 233 237 239 250 277 290 301 153 300 306 193 280 318 76 113 127 152 161 157 152 170 174 170 167 172 174 175 169 164 162 166 160 156 157 157 156 151 145 144 145 148 143 136 130 121 108 87
235 238 243 238 248 250 254 250 263 209 261 296 241 250 297 126 133 142 153 164 160 158 168 177 171 171 175 172 172 167 168 169 169 166 164 166 164 156 158 154 153 153 149 148 151 151 143 121 78
274 274 246 259 276 297 302 312 306 254 275 283 294 275 207 167 149 149 157 165 160 162 170 179 173 174 175 173 174 173 172 172 173 169 164 166 169 166 167 169 169 160 161 168 182 208 235 249 305
304 235 284 275 286 289 295 329 351 313 262 317 322 310 336 49 120 146 159 171 153 158 172 176 176 175 178 179 180 181 178 174 173 169 169 175 171 174 179 185 189 179 182 197 219 242 264 285 312
312 284 290 307 325 351 354 359 339 330 306 356 309 304 101 87 89 152 163 180 153 164 167 169 174 176 180 180 180 178 177 176 174 174 175 181 182 189 195 200 210 200 209 218 232 253 273 289 297
275 264 263 15 355 359 336 342 331 334 324 318 302 275 71 84 40 306 186 195 165 166 173 173 178 178 179 177 178 179 176 176 176 177 180 173 170 191 198 206 208 227 237 245 252 269 286 298 20
344 252 341 334 345 332 317 311 315 307 300 300 295 298 2 127 153 248 284 198 193 177 182 182 183 182 182 176 179 180 180 175 172 176 186 179 191 196 183 202 234 242 246 251 243 281 310 314 269
312 296 330 323 333 324 303 300 286 274 276 287 293 297 299 319 188 194 231 274 189 174 195 194 187 188 188 193 187 182 177 177 178 182 186 192 189 189 205 207 232 232 236 237 235 256 255 249 263
255 324 332 317 308 297 288 285 287 290 287 272 278 285 292 272 285 197 205 238 225 181 188 202 189 177 186 191 190 181 180 180 183 187 190 193 198 199 200 206 214 219 215 225 231 239 243 262 264
347 318 299 291 280 268 268 289 298 280 280 276 284 274 278 281 281 284 196 207 241 205 195 187 195 192 190 180 191 187 187 186 183 187 191 194 198 200 204 208 213 220 221 229 233 236 246 249 255
298 300 291 215 351 323 31 276 254 1 337 311 258 268 282 264 267 282 265 209 215 225 210 182 187 182 192 194 196 196 193 184 184 190 198 201 200 203 204 210 213 219 221 227 229 238 253 257 250
268 244 355 345 354 340 345 297 18 346 330 329 334 357 5 353 6 352 333 215 217 200 200 188 184 182 185 195 205 197 187 184 188 191 198 203 205 207 209 209 215 216 222 227 232 242 247 254 260
80 317 334 329 355 331 359 316 330 322 346 351 356 353 343 338 351 339 322 229 219 190 189 180 184 187 180 194 201 205 191 200 199 197 202 205 207 209 211 218 218 219 225 231 235 239 247 251 255
316 328 310 323 325 343 306 293 321 330 12 359 353 358 328 329 343 330 335 293 227 193 188 180 180 178 190 187 198 209 209 205 209 211 208 209 210 214 217 221 226 228 230 229 235 240 237 246 246
303 282 308 315 319 323 360 16 28 6 2 360 351 345 333 339 344 339 344 38 281 197 186 177 180 189 187 196 194 200 209 210 216 219 212 217 215 216 218 224 228 236 237 237 237 243 237 240 252
302 306 309 299 333 106 343 17 353 9 351 356 4 342 344 1 358 9 15 38 351 68 111 176 183 187 191 198 197 199 206 214 222 221 223 221 222 219 222 225 226 234 240 241 239 237 242 251 244
316 199 258 243 309 95 332 91 7 340 347 359 2 348 6 10 5 8 30 23 319 50 60 65 71 174 193 201 198 198 210 221 219 223 224 227 222 224 231 230 235 239 246 244 245 255 250 247 249
311 125 321 319 316 323 28 295 24 356 342 355 353 1 2 3 17 10 29 37 9 50 60 70 62 55 99 182 199 206 202 210 218 224 217 215 219 235 240 244 245 247 249 254 266 275 272 257 245
260 328 296 92 285 236 357 289 9 5 346 331 336 349 350 14 14 13 15 25 59 53 57 64 62 53 54 52 116 197 223 229 214 199 193 195 200 226 216 220 225 246 260 224 97 55 42 48 7
278 281 240 219 220 141 284 90 28 8 338 325 332 342 351 11 15 11 25 279 49 50 53 63 60 52 51 42 59 64 59 54 85 109 109 99 104 74 78 88 127 105 73 37 33 7 14 13 34
356 320 340 265 338 4 345 52 62 355 341 336 358 3 358 20 2 344 320 29 35 39 29 56 61 54 48 36 47 50 57 55 56 48 71 74 69 72 55 47 36 37 28 25 329 357 4 344 359
310 327 80 307 341 319 45 12 343 58 128 97 74 29 20 2 356 13 9 23 26 35 20 46 55 63 45 35 43 47 46 57 61 62 50 61 54 40 49 28 29 1 3 348 319 4 324 347 314
351 57 355 300 34 337 105 107 165 41 52 56 49 41 27 24 24 24 15 19 20 20 19 43 46 56 51 28 32 31 41 36 40 45 43 35 37 36 11 356 351 318 313 302 317 295 286 268 222
209 332 276 281 347 331 138 102 110 86 41 58 46 50 35 26 30 32 15 33 35 29 33 44 42 39 34 22 23 13 25 22 25 22 38 17 20 15 346 346 337 316 310 310 335 321 91 179 102
315 67 309 245 145 291 224 142 97 106 82 87 77 58 53 26 40 14 39 43 49 46 42 44 41 30 34 26 33 28 19 26 20 22 31 23 37 33 23 24 11 355 8 17 26 45 62 65 62
314 344 281 275 239 162 266 196 124 124 124 120 103 85 95 109 77 39 43 42 40 43 41 41 43 39 38 28 37 40 28 34 35 30 29 24 36 37 42 39 33 22 16 20 29 44 54 62 72